Home   Weather   Chernobyl   Past weeks

Flag for Ukraine Past Weather in Chernobyl, Ukraine — Yesterday and Last 2 Weeks

Now
43 °F

Overcast.


Feels Like: 37 °F
Forecast: 31 / 40 °F
Wind: 10 mph from West

Location: Hostomel

Current Time: Dec 10, 2016 at 11:17:09 am

Latest Report: Dec 10, 2016 at 10:30 am


Visibility: N/A

Pressure: 29.80 "Hg

Humidity: 87%

Dew Point: 39 °F

Location of ChernobylLocation

Past Weather in Chernobyl — Graph

°F

Chernobyl Temperature Yesterday

Maximum temperature yesterday: 45 °F (at 1:30 pm)
Minimum temperature yesterday: 39 °F (at 12:00 am)
Average temperature yesterday: 42 °F

High & Low Weather Summary for the Past Weeks

 TemperatureHumidityPressure
High45 °F (Nov 27, 10:00 am)100% (Nov 25, 10:00 am)30.57 "Hg (Nov 25, 10:00 am)
Low7 °F (Dec 7, 4:00 am)54% (Dec 7, 2:00 pm)29.39 "Hg (Dec 2, 8:00 am)
Average29 °F85%29.94 "Hg
* Reported Nov 25 10:00 am — Dec 10 10:00 am, Chernobyl, Weather by CustomWeather, © 2016

Note: Actual official high and low records may vary slightly from our data, if they occured in-between our weather recording intervals... More about our weather records

Advertising

Chernobyl Weather History for the Previous 24 Hours

Scroll right to see more
 ConditionsComfort  
Time TempWeatherWind HumidityBarometerVisibility
10:00 am
Sat, Dec 10
43 °FOvercast.13 mph87%29.83 "HgN/A
9:30 am43 °FOvercast.10 mph87%29.83 "HgN/A
9:00 am43 °FOvercast.10 mph87%29.83 "HgN/A
8:30 am43 °FQuite cool.15 mph87%29.83 "Hg6 mi
8:00 am43 °FQuite cool.15 mph87%29.83 "Hg6 mi
7:30 am43 °FQuite cool.10 mph93%29.83 "Hg6 mi
7:00 am43 °FSprinkles. Overcast.13 mph93%29.80 "Hg5 mi
6:30 am43 °FSprinkles. Overcast.15 mph93%29.80 "Hg5 mi
6:00 am43 °FSprinkles. Overcast.10 mph93%29.80 "Hg2 mi
5:30 am43 °FPassing clouds.15 mph93%29.80 "Hg4 mi
5:00 am43 °FSprinkles. Passing clouds.13 mph93%29.80 "Hg3 mi
4:30 am43 °FSprinkles. Overcast.13 mph93%29.80 "Hg5 mi
4:00 am43 °FQuite cool.15 mph93%29.77 "Hg5 mi
3:30 am43 °FQuite cool.13 mph93%29.77 "Hg6 mi
3:00 am43 °FSprinkles. Passing clouds.13 mph93%29.77 "Hg4 mi
2:30 am43 °FSprinkles. Passing clouds.13 mph93%29.77 "Hg6 mi
2:00 am43 °FQuite cool.15 mph93%29.74 "Hg6 mi
1:30 am41 °FPassing clouds.15 mph93%29.74 "Hg4 mi
1:00 am41 °FLight rain. Overcast.13 mph93%29.74 "Hg3 mi
12:30 am41 °FLight rain. Passing clouds.13 mph93%29.74 "Hg5 mi
12:00 am41 °FLight rain. Passing clouds.10 mph93%29.74 "Hg4 mi
11:30 pm
Fri, Dec 9
41 °FSprinkles. Passing clouds.13 mph93%29.74 "Hg5 mi
11:00 pm41 °FSprinkles. Passing clouds.13 mph93%29.74 "Hg5 mi
10:30 pm41 °FSprinkles. Passing clouds.10 mph93%29.74 "Hg5 mi
10:00 pm41 °FSprinkles. Passing clouds.13 mph93%29.74 "Hg4 mi
9:30 pm41 °FSprinkles. Passing clouds.13 mph100%29.74 "Hg2 mi
9:00 pm41 °FSprinkles. Overcast.10 mph100%29.74 "Hg1 mi
8:30 pm41 °FFog.10 mph100%29.74 "Hg2 mi
8:00 pm41 °FFog.10 mph100%29.74 "Hg2 mi
7:30 pm41 °FFog.10 mph100%29.77 "Hg3 mi
7:00 pm43 °FQuite cool.10 mph93%29.77 "Hg3 mi
6:30 pm43 °FQuite cool.10 mph93%29.77 "Hg4 mi
6:00 pm43 °FQuite cool.10 mph93%29.80 "Hg3 mi
5:30 pm43 °FQuite cool.8 mph93%29.80 "Hg4 mi
5:00 pm43 °FDrizzle. Low clouds.10 mph93%29.80 "Hg4 mi
4:30 pm43 °FDrizzle. Low clouds.10 mph93%29.80 "Hg4 mi
4:00 pm43 °FLight rain. Fog.13 mph93%29.80 "Hg2 mi
3:30 pm43 °FLight rain. Fog.13 mph100%29.80 "Hg2 mi
3:00 pm43 °FLow clouds.13 mph93%29.80 "HgN/A
2:30 pm43 °FDrizzle. Low clouds.13 mph100%29.80 "Hg6 mi
2:00 pm43 °FDrizzle. Fog.15 mph93%29.80 "Hg3 mi
1:30 pm45 °FDrizzle. Overcast.13 mph87%29.80 "HgN/A
1:00 pm43 °FDrizzle. Overcast.13 mph93%29.80 "HgN/A
12:30 pm43 °FDrizzle. Overcast.13 mph93%29.80 "Hg4 mi
12:00 pm43 °FOvercast.15 mph93%29.80 "HgN/A
11:30 am43 °FLow clouds.13 mph93%29.80 "HgN/A
11:00 am43 °FLow clouds.13 mph93%29.80 "Hg6 mi
Weather by CustomWeather, © 2016

See weather overviewHow to use our weather pages